This is the latest recevied weather packets stored in our database for station/object ON7SD-5. If no packets are shown the sender has not sent any weather packets the latest 10 day(s).
| Time | Temp. | Humidity | Pressure | Rain* | Wind** | Luminosity | Snow |
|---|---|---|---|---|---|---|---|
| 1777765332 | 15.56° C | 95% | 1011.2 hPa | 0 mm | - | 0 W/m² | - |
| 1777765032 | 15.56° C | 95% | 1011.2 hPa | 0 mm | - | 0 W/m² | - |
| 1777764732 | 15.56° C | 95% | 1011.2 hPa | 0 mm | - | 0 W/m² | - |
| 1777764432 | 15.56° C | 95% | 1011.4 hPa | 0 mm | - | 0 W/m² | - |
| 1777764132 | 15.56° C | 95% | 1011.3 hPa | 0 mm | - | 0 W/m² | - |
| 1777763832 | 15.56° C | 95% | 1011.2 hPa | 0 mm | - | 0 W/m² | - |
| 1777763532 | 15.56° C | 95% | 1011.2 hPa | 0 mm | - | 0 W/m² | - |
| 1777762032 | 15° C | 95% | 1011.3 hPa | 0 mm | - | 0 W/m² | - |
| 1777761432 | 15.56° C | 95% | 1011.3 hPa | 0 mm | - | 0 W/m² | - |
| 1777761132 | 15.56° C | 95% | 1011.3 hPa | 0 mm | - | 0 W/m² | - |
| 1777760832 | 15.56° C | 95% | 1011.3 hPa | 0 mm | - | 0 W/m² | - |
| 1777760532 | 15.56° C | 95% | 1011.3 hPa | 0 mm | - | 0 W/m² | - |
| 1777757832 | 15.56° C | 95% | 1011.6 hPa | 0 mm | - | 0 W/m² | - |
| 1777757532 | 15.56° C | 95% | 1011.6 hPa | 0 mm | - | 0 W/m² | - |
| 1777753032 | 16.11° C | 94% | 1011.6 hPa | 0 mm | - | 0 W/m² | - |
| 1777752132 | 16.11° C | 93% | 1011.7 hPa | 0 mm | - | 0 W/m² | - |
| 1777750632 | 16.11° C | 93% | 1011.7 hPa | 0 mm | - | 0 W/m² | - |
| 1777747032 | 15.56° C | 90% | 1012.1 hPa | 17.02 mm | - | 12 W/m² | - |
| 1777745232 | 16.11° C | 89% | 1012.6 hPa | 17.53 mm | - | 0 W/m² | - |
| 1777741632 | 23.89° C | 52% | 1011.8 hPa | 0 mm | - | 53 W/m² | - |
| 1777741032 | 23.89° C | 53% | 1011.8 hPa | 0 mm | - | 98 W/m² | - |
| 1777739832 | 23.89° C | 52% | 1012.1 hPa | 0 mm | - | 74 W/m² | - |
| 1777739232 | 24.44° C | 52% | 1012.1 hPa | 0 mm | - | 83 W/m² | - |
| 1777738632 | 24.44° C | 51% | 1012.4 hPa | 0 mm | - | 107 W/m² | - |
| 1777738332 | 24.44° C | 51% | 1012.4 hPa | 0 mm | - | 146 W/m² | - |
* Rain latest hour (hover to see other rain measurements)
** Current wind speed in m/s (hover to see current wind gust speed)